TimeEST,TemperatureF,Dew PointF,Humidity,Sea Level PressureIn,VisibilityMPH,Wind Direction,Wind SpeedMPH,Gust SpeedMPH,PrecipitationIn,Events,Conditions,WindDirDegrees,DateUTC
12:15 AM,33.8,32.0,93,29.30,2.0,North,26.5,33.4,N/A,,Overcast,360,2012-12-30 05:15:00
12:35 AM,35.6,33.8,93,29.31,4.0,North,24.2,34.5,N/A,,Overcast,350,2012-12-30 05:35:00
12:55 AM,35.6,33.8,93,29.32,3.0,NNW,31.1,41.4,0.15,,Overcast,340,2012-12-30 05:55:00
1:15 AM,35.6,33.8,93,29.34,4.0,NNW,33.4,40.3,0.02,,Overcast,340,2012-12-30 06:15:00
1:55 AM,33.8,32.0,93,29.35,4.0,North,28.8,42.6,0.03,,Overcast,350,2012-12-30 06:55:00
2:35 AM,33.8,32.0,93,29.37,6.0,NNW,29.9,38.0,N/A,,Overcast,340,2012-12-30 07:35:00
2:55 AM,33.8,33.8,100,29.39,8.0,NNW,26.5,38.0,N/A,,Overcast,340,2012-12-30 07:55:00
3:15 AM,33.8,33.8,100,29.40,6.0,NNW,26.5,35.7,N/A,,Overcast,330,2012-12-30 08:15:00
3:35 AM,33.8,32.0,93,29.41,9.0,NNW,24.2,35.7,N/A,,Overcast,330,2012-12-30 08:35:00
3:55 AM,33.8,30.2,87,29.42,10.0,NNW,26.5,35.7,N/A,,Overcast,330,2012-12-30 08:55:00
4:15 AM,32.0,28.4,87,29.43,10.0,NW,21.9,33.4,N/A,,Overcast,320,2012-12-30 09:15:00
4:35 AM,33.8,30.2,87,29.44,10.0,NNW,29.9,35.7,N/A,,Overcast,330,2012-12-30 09:35:00
5:15 AM,33.8,28.4,81,29.46,10.0,NNW,21.9,29.9,N/A,,Overcast,330,2012-12-30 10:15:00
5:35 AM,33.8,28.4,81,29.47,10.0,NNW,21.9,29.9,N/A,,Overcast,330,2012-12-30 10:35:00
5:55 AM,33.8,28.4,81,29.47,10.0,NW,25.3,31.1,N/A,,Overcast,320,2012-12-30 10:55:00
6:15 AM,33.8,28.4,81,29.49,10.0,NW,26.5,34.5,N/A,,Overcast,310,2012-12-30 11:15:00
6:35 AM,33.8,28.4,81,29.50,10.0,NW,25.3,31.1,N/A,,Overcast,310,2012-12-30 11:35:00
6:55 AM,33.8,28.4,81,29.51,10.0,NW,23.0,32.2,0.61,,Overcast,320,2012-12-30 11:55:00
7:35 AM,33.8,28.4,81,29.52,10.0,NW,21.9,32.2,0.33,,Overcast,320,2012-12-30 12:35:00
7:55 AM,33.8,28.4,81,29.53,10.0,NW,24.2,33.4,0.33,,Overcast,320,2012-12-30 12:55:00
8:15 AM,33.8,28.4,81,29.54,4.0,NW,28.8,34.5,N/A,,Overcast,310,2012-12-30 13:15:00
8:35 AM,32.0,28.4,87,29.55,8.0,NW,24.2,35.7,N/A,,Overcast,310,2012-12-30 13:35:00
8:55 AM,32.0,26.6,80,29.56,10.0,NW,26.5,35.7,N/A,,Overcast,310,2012-12-30 13:55:00
10:15 AM,32.0,24.8,75,29.60,10.0,NW,24.2,40.3,N/A,,Overcast,310,2012-12-30 15:15:00
10:55 AM,32.0,21.2,64,29.60,10.0,NW,33.4,41.4,N/A,,Mostly Cloudy,310,2012-12-30 15:55:00
11:15 AM,32.0,24.8,75,29.61,10.0,NW,31.1,39.1,N/A,,Mostly Cloudy,310,2012-12-30 16:15:00
11:35 AM,33.8,24.8,70,29.60,10.0,NW,34.5,48.3,N/A,,Scattered Clouds,310,2012-12-30 16:35:00
12:35 PM,33.8,23.0,65,29.61,10.0,NW,28.8,41.4,N/A,,Mostly Cloudy,310,2012-12-30 17:35:00
12:55 PM,33.8,23.0,65,29.61,10.0,NW,26.5,39.1,N/A,,Mostly Cloudy,310,2012-12-30 17:55:00
1:15 PM,32.0,21.2,64,29.62,10.0,WNW,28.8,41.4,N/A,,Overcast,300,2012-12-30 18:15:00
1:35 PM,33.8,21.2,60,29.62,10.0,NW,32.2,44.9,N/A,,Overcast,310,2012-12-30 18:35:00
1:55 PM,33.8,19.4,56,29.63,10.0,NW,29.9,43.7,N/A,,Mostly Cloudy,310,2012-12-30 18:55:00
2:15 PM,33.8,19.4,56,29.63,10.0,WNW,32.2,43.7,N/A,,Mostly Cloudy,300,2012-12-30 19:15:00
2:35 PM,33.8,19.4,56,29.64,10.0,NW,31.1,43.7,N/A,,Overcast,310,2012-12-30 19:35:00
3:35 PM,33.8,19.4,56,29.68,10.0,NW,33.4,50.6,N/A,,Overcast,310,2012-12-30 20:35:00
3:55 PM,33.8,19.4,56,29.69,10.0,NW,33.4,46.0,N/A,,Mostly Cloudy,320,2012-12-30 20:55:00
4:35 PM,33.8,19.4,56,29.71,10.0,NW,34.5,44.9,N/A,,Scattered Clouds,310,2012-12-30 21:35:00
4:55 PM,32.0,19.4,60,29.73,10.0,NW,29.9,40.3,N/A,,Clear,310,2012-12-30 21:55:00
5:35 PM,32.0,15.8,51,29.76,10.0,WNW,34.5,50.6,N/A,,Clear,300,2012-12-30 22:35:00
5:55 PM,30.2,17.6,60,29.78,10.0,NW,36.8,47.2,N/A,,Clear,310,2012-12-30 22:55:00
6:15 PM,30.2,17.6,60,29.79,10.0,NW,31.1,44.9,N/A,,Clear,310,2012-12-30 23:15:00
6:35 PM,30.2,17.6,60,29.80,10.0,NW,29.9,46.0,N/A,,Clear,310,2012-12-30 23:35:00
6:55 PM,30.2,17.6,60,29.81,10.0,NW,32.2,43.7,N/A,,Clear,310,2012-12-30 23:55:00
7:15 PM,30.2,17.6,60,29.82,10.0,NW,32.2,48.3,N/A,,Clear,310,2012-12-31 00:15:00
7:35 PM,30.2,17.6,60,29.83,10.0,NW,34.5,49.5,N/A,,Clear,310,2012-12-31 00:35:00
7:55 PM,30.2,15.8,55,29.83,10.0,NW,36.8,50.6,N/A,,Clear,310,2012-12-31 00:55:00
8:15 PM,30.2,15.8,55,29.84,10.0,NW,32.2,48.3,N/A,,Clear,310,2012-12-31 01:15:00
8:35 PM,30.2,15.8,55,29.85,10.0,WNW,35.7,48.3,N/A,,Clear,300,2012-12-31 01:35:00
8:55 PM,30.2,17.6,60,29.86,10.0,NW,33.4,43.7,N/A,,Clear,310,2012-12-31 01:55:00
9:15 PM,28.4,15.8,59,29.87,10.0,NW,34.5,43.7,N/A,,Clear,310,2012-12-31 02:15:00
9:55 PM,28.4,15.8,59,29.89,10.0,NW,29.9,44.9,N/A,,Clear,310,2012-12-31 02:55:00
10:35 PM,28.4,17.6,64,29.89,10.0,WNW,33.4,48.3,N/A,,Clear,300,2012-12-31 03:35:00
10:55 PM,28.4,17.6,64,29.90,10.0,NW,36.8,48.3,N/A,,Clear,310,2012-12-31 03:55:00
11:35 PM,28.4,15.8,59,29.92,10.0,WNW,32.2,44.9,N/A,,Clear,300,2012-12-31 04:35:00
11:55 PM,28.4,15.8,59,29.92,10.0,WNW,35.7,47.2,N/A,,Clear,300,2012-12-31 04:55:00